Location: Izdebno
(52.6670°N, 16.2170°E)
Time: 09:13:56
(UTC+02:00)

Envisat - Visible Passes

Search period start: 13 April 2024 00:00
Search period end: 23 April 2024 00:00
Orbit: 762 x 764 km, 98.3° (Epoch: 12 April)

Date Brightness Start Highest point End Pass type
(mag) Time Alt. Az. Time Alt. Az. Time Alt. Az.
13 Apr 4.4 03:41:32 10° NNE 03:46:09 34° E 03:50:45 10° SSE visible
13 Apr 3.5 05:20:27 10° N 05:25:14 43° WNW 05:30:01 10° SW visible
14 Apr 5.4 03:05:01 10° NE 03:08:26 18° E 03:11:50 10° SE visible
14 Apr 3.0 04:42:56 10° NNE 04:48:03 81° WNW 04:53:07 10° SSW visible
15 Apr 3.7 04:05:40 10° NNE 04:10:39 52° E 04:15:36 10° S visible
16 Apr 4.8 03:28:45 10° NE 03:33:04 27° E 03:37:21 10° SSE visible
16 Apr 3.3 05:07:23 10° N 05:12:20 53° WNW 05:17:14 10° SW visible
17 Apr 5.5 02:52:36 10° NE 02:55:15 14° E 02:57:54 10° ESE visible
17 Apr 3.1 04:29:57 10° NNE 04:35:03 81° ESE 04:40:09 10° SSW visible
18 Apr 4.1 03:52:46 10° NNE 03:57:36 42° E 04:02:24 10° SSE visible
19 Apr 5.1 03:16:01 10° NE 03:19:56 22° E 03:23:49 10° SE visible
19 Apr 3.1 04:54:20 10° N 04:59:23 66° WNW 05:04:25 10° SSW visible
20 Apr 5.7 02:40:45 10° ENE 02:42:03 11° E 02:43:22 10° E visible
20 Apr 3.4 04:16:58 10° NNE 04:22:03 65° ESE 04:27:05 10° S visible
21 Apr 4.5 03:39:55 10° NNE 03:44:31 33° E 03:49:06 10° SSE visible
22 Apr 5.4 03:03:25 10° NE 03:06:47 17° E 03:10:08 10° SE visible
22 Apr 3.0 04:41:18 10° NNE 04:46:25 82° WNW 04:51:30 10° SSW visible
